Terug naar catalogus

COSMOS 729

ActiefMilitairPO
NORAD 7768·PAYLOAD·🇷🇺 Russia

Gelanceerd Apr 22, 1975 vanaf Plesetsk Cosmodrome

Loading…

Volgende Passages (komende 24 uur)

TLE

VersSource: Space-Track

Epoch: Sep 14, 2026, 11:32 UTC

1 07768U 75034A   26257.48070575  .00000035  00000-0  21807-4 0  9995
2 07768  82.9606  64.5180 0021639 275.1408 111.5141 13.73649073575298

Volg COSMOS 729 in realtime met AllMySat

Download on the App Store